This is the latest recevied weather packets stored in our database for station/object KM4CNW. If no packets are shown the sender has not sent any weather packets the latest 10 day(s).
| Time | Temp. | Humidity | Pressure | Rain* | Wind** | Luminosity | Snow |
|---|---|---|---|---|---|---|---|
| 1777125054 | 21.67° C | 57% | 1004.7 hPa | 0 mm | - | 206 W/m² | - |
| 1777124750 | 21.67° C | 57% | 1004.3 hPa | 0 mm | - | 164 W/m² | - |
| 1777124445 | 21.67° C | 60% | 1004.4 hPa | 0 mm | - | 132 W/m² | - |
| 1777124143 | 21.11° C | 60% | 1004.4 hPa | 0 mm | - | 148 W/m² | - |
| 1777123839 | 21.11° C | 61% | 1004.6 hPa | 0 mm | - | 115 W/m² | - |
| 1777123536 | 20.56° C | 61% | 1004.4 hPa | 0 mm | - | 116 W/m² | - |
| 1777123232 | 20.56° C | 62% | 1004.5 hPa | 0 mm | - | 114 W/m² | - |
| 1777122928 | 20° C | 62% | 1004.3 hPa | 0 mm | - | 110 W/m² | - |
| 1777122625 | 20° C | 63% | 1004.5 hPa | 0 mm | - | 104 W/m² | - |
| 1777122319 | 20° C | 65% | 1004.7 hPa | 0 mm | - | 104 W/m² | - |
| 1777122017 | 19.44° C | 65% | 1004.6 hPa | 0 mm | - | 96 W/m² | - |
| 1777121712 | 18.89° C | 67% | 1004.5 hPa | 0 mm | - | 133 W/m² | - |
| 1777121410 | 18.89° C | 68% | 1004.4 hPa | 0 mm | - | 111 W/m² | - |
| 1777121105 | 18.33° C | 70% | 1004.4 hPa | 0 mm | - | 134 W/m² | - |
| 1777120802 | 17.78° C | 72% | 1004.5 hPa | 0 mm | - | 79 W/m² | - |
| 1777120497 | 16.67° C | 74% | 1004.4 hPa | 0 mm | - | 60 W/m² | - |
| 1777120198 | 16.11° C | 79% | 1004.4 hPa | 0 mm | - | 74 W/m² | - |
| 1777119894 | 15.56° C | 82% | 1004.4 hPa | 0 mm | - | 58 W/m² | - |
| 1777119591 | 15.56° C | 82% | 1004.2 hPa | 0 mm | - | 58 W/m² | - |
| 1777119286 | 15° C | 82% | 1004.4 hPa | 0 mm | - | 53 W/m² | - |
| 1777118981 | 15° C | 82% | 1004.3 hPa | 0 mm | - | 47 W/m² | - |
| 1777118677 | 14.44° C | 82% | 1004.4 hPa | 0 mm | - | 43 W/m² | - |
| 1777118372 | 14.44° C | 83% | 1004.2 hPa | 0 mm | - | 39 W/m² | - |
| 1777118070 | 14.44° C | 84% | 1004.3 hPa | 0 mm | - | 38 W/m² | - |
* Rain latest hour (hover to see other rain measurements)
** Current wind speed in m/s (hover to see current wind gust speed)